COSMOS 482 DESCENT CRAFT (6073 NORAD) Tracking and Keplerian Element Data

This shows tracking and keplerian element data for the satellite.

Feedback or suggestion? Click here.




ElementValue
Catalog6073
NameCOSMOS 482 DESCENT CRAFT
Epoch Orbit67903
Epoch Day13.1485196
Epoch Year2024
RAAN286.3411
Inclination52.0104
Eccentricity0.0828472
Argument of Perigee301.0389
Mean Anonmoly51.1747
Mean Motion14.32202203
Decay Rate0.00073242
L11 06073U 72023E 24013.14851960 .00073242 73705-5 16106-3 0 9996
L22 06073 52.0104 286.3411 0828472 301.0389 51.1747 14.32202203679039



Live tracking and technical data element details for COSMOS 482 DESCENT CRAFT (NORAD 6073). COSMOS 482 DESCENT CRAFT can be tracked NOW for your location showing map with azimuth and elevation plus other details from your city location.







IsCatalogInMostPopularTable: catalog: 6073, numindb: 698
Update: records affected: 1



GetName: 6073 COSMOS 482 DESCENT CRAFT

Hit Count: updated at: Fri, 19 Apr 2024 11:43:10 GMT